KA8OAD-1 Weather Reports


Display with metric or nautical units.
time (UTC)temp
F
wind
direction
speed
MPH
gust
MPH
rain 1hr
in
rain 24hr
in
rain mn
in
humidity
%
barometer
mb
20260906233004 72 0 0.0 0.0 0.00 0.00 0.00 68 1016.7
20260906232504 73 302 0.0 2.0 0.00 0.00 0.00 67 1016.6
20260906232004 73 302 0.0 2.0 0.00 0.00 0.00 67 1016.6
20260906231503 73 302 0.0 2.0 0.00 0.00 0.00 66 1016.6
20260906231005 73 302 0.0 2.0 0.00 0.00 0.00 66 1016.6
20260906230503 74 301 0.0 2.0 0.00 0.00 0.00 66 1016.6
20260906230004 74 301 0.0 2.0 0.00 0.00 0.00 65 1016.6
20260906225504 74 302 1.0 2.0 0.00 0.00 0.00 65 1016.4
20260906224504 74 25 1.0 4.0 0.00 0.00 0.00 65 1016.4
20260906224004 74 13 2.0 4.0 0.00 0.00 0.00 65 1016.4
20260906223004 75 25 1.0 5.0 0.00 0.00 0.00 64 1016.5
20260906222504 75 18 1.0 5.0 0.00 0.00 0.00 64 1016.4
20260906222004 75 54 1.0 3.0 0.00 0.00 0.00 64 1016.4
20260906221504 76 61 1.0 3.0 0.00 0.00 0.00 63 1016.3
20260906221004 76 46 2.0 5.0 0.00 0.00 0.00 63 1016.2
20260906220004 76 65 2.0 4.0 0.00 0.00 0.00 62 1016.1
20260906215504 76 57 2.0 3.0 0.00 0.00 0.00 61 1016.1
20260906215004 76 36 2.0 4.0 0.00 0.00 0.00 61 1016.1
20260906214503 76 18 1.0 4.0 0.00 0.00 0.00 63 1016.1
20260906214014 76 36 1.0 3.0 0.00 0.00 0.00 62 1016.2
20260906213507 77 49 1.0 3.0 0.00 0.00 0.00 61 1016.2
20260906213007 77 53 1.0 4.0 0.00 0.00 0.00 61 1016.1
20260906212504 77 76 2.0 4.0 0.00 0.00 0.00 61 1016.1
20260906212004 77 65 1.0 4.0 0.00 0.00 0.00 63 1016.1
20260906211504 77 7 1.0 5.0 0.00 0.00 0.00 63 1015.9
20260906211004 77 329 1.0 5.0 0.00 0.00 0.00 62 1015.9
20260906210504 77 348 1.0 4.0 0.00 0.00 0.00 60 1015.9
20260906210004 77 335 2.0 5.0 0.00 0.00 0.00 58 1015.9
20260906205504 77 297 1.0 5.0 0.00 0.00 0.00 56 1015.8
20260906205004 77 135 0.0 2.0 0.00 0.00 0.00 57 1015.9
20260906204005 78 135 1.0 3.0 0.00 0.00 0.00 55 1015.7
20260906203503 78 136 2.0 5.0 0.00 0.00 0.00 54 1015.7
20260906203005 78 141 2.0 5.0 0.00 0.00 0.00 55 1015.7
20260906202503 78 152 2.0 5.0 0.00 0.00 0.00 53 1015.6
20260906202005 78 183 1.0 5.0 0.00 0.00 0.00 53 1015.8
20260906201005 78 283 1.0 4.0 0.00 0.00 0.00 53 1015.8
20260906200503 78 137 0.0 1.0 0.00 0.00 0.00 53 1015.8
20260906200005 78 135 1.0 4.0 0.00 0.00 0.00 53 1015.8
20260906195503 78 135 2.0 4.0 0.00 0.00 0.00 52 1015.8
20260906195004 78 107 2.0 4.0 0.00 0.00 0.00 51 1015.7
20260906194504 79 119 2.0 4.0 0.00 0.00 0.00 50 1015.7
20260906193504 80 152 2.0 4.0 0.00 0.00 0.00 50 1015.8
20260906193004 80 133 1.0 4.0 0.00 0.00 0.00 49 1015.9
20260906192504 80 92 1.0 4.0 0.00 0.00 0.00 51 1016.0
20260906191504 80 3 1.0 3.0 0.00 0.00 0.00 49 1016.0
20260906191005 80 30 1.0 4.0 0.00 0.00 0.00 48 1016.2
20260906190504 80 22 1.0 4.0 0.00 0.00 0.00 51 1016.2
20260906190004 81 73 2.0 4.0 0.00 0.00 0.00 50 1016.2
20260906185004 82 86 2.0 5.0 0.00 0.00 0.00 49 1016.4
20260906184504 83 53 2.0 5.0 0.00 0.00 0.00 48 1016.4
20260906184004 83 96 2.0 6.0 0.00 0.00 0.00 50 1016.5
20260906183504 82 92 2.0 6.0 0.00 0.00 0.00 49 1016.6
20260906183004 82 77 2.0 6.0 0.00 0.00 0.00 46 1016.5
20260906182504 82 75 2.0 6.0 0.00 0.00 0.00 47 1016.6
20260906182004 82 101 1.0 4.0 0.00 0.00 0.00 53 1016.6
20260906181004 80 112 1.0 3.0 0.00 0.00 0.00 53 1016.6
20260906180505 80 121 1.0 4.0 0.00 0.00 0.00 50 1016.6
20260906180005 81 81 1.0 5.0 0.00 0.00 0.00 47 1016.6
20260906175503 82 53 2.0 5.0 0.00 0.00 0.00 47 1016.6
20260906174504 82 72 1.0 4.0 0.00 0.00 0.00 51 1016.7
20260906174005 81 95 2.0 4.0 0.00 0.00 0.00 53 1016.7
20260906173504 81 109 2.0 4.0 0.00 0.00 0.00 50 1016.8
20260906173004 80 48 2.0 5.0 0.00 0.00 0.00 51 1016.9
20260906172504 81 67 2.0 5.0 0.00 0.00 0.00 49 1016.8
20260906172004 80 94 1.0 4.0 0.00 0.00 0.00 54 1016.8
20260906171503 79 69 1.0 5.0 0.00 0.00 0.00 53 1016.8
20260906171005 79 13 2.0 5.0 0.00 0.00 0.00 56 1016.9
20260906170503 78 61 1.0 4.0 0.00 0.00 0.00 56 1016.9
20260906170005 78 110 2.0 6.0 0.00 0.00 0.00 54 1016.9
20260906165503 78 92 2.0 6.0 0.00 0.00 0.00 54 1016.9
20260906165005 79 43 2.0 4.0 0.00 0.00 0.00 54 1017.0
20260906164504 78 84 2.0 4.0 0.00 0.00 0.00 55 1016.9
20260906164005 78 158 1.0 5.0 0.00 0.00 0.00 59 1017.0
20260906163504 77 153 2.0 5.0 0.00 0.00 0.00 56 1017.0
20260906162005 77 104 2.0 6.0 0.00 0.01 0.00 57 1017.0
20260906161004 76 88 1.0 4.0 0.00 0.03 0.00 61 1017.1
20260906160503 76 338 2.0 4.0 0.00 0.03 0.00 63 1017.1
20260906160005 75 317 2.0 6.0 0.00 0.03 0.00 65 1017.1
20260906154504 74 97 1.0 5.0 0.00 0.03 0.00 65 1017.3
20260906154005 74 68 2.0 5.0 0.00 0.03 0.00 65 1017.2
20260906153503 74 48 2.0 5.0 0.00 0.03 0.00 66 1017.2
20260906153005 73 14 1.0 5.0 0.00 0.03 0.00 67 1017.2
20260906152504 73 335 2.0 5.0 0.00 0.03 0.00 69 1017.1
20260906152004 72 359 1.0 5.0 0.00 0.03 0.00 71 1017.1
20260906151504 71 72 1.0 4.0 0.00 0.03 0.00 73 1017.1
20260906151004 71 24 1.0 4.0 0.00 0.03 0.00 74 1017.1
20260906150503 70 335 1.0 3.0 0.00 0.03 0.00 75 1017.2
20260906150004 70 337 1.0 5.0 0.00 0.03 0.00 75 1017.2
20260906145503 70 346 1.0 5.0 0.00 0.03 0.00 76 1017.0
20260906145004 69 94 1.0 4.0 0.00 0.03 0.00 78 1017.1
20260906144503 69 145 1.0 3.0 0.00 0.03 0.00 79 1017.1
20260906143504 68 2 1.0 5.0 0.00 0.03 0.00 82 1017.0
20260906143005 67 341 1.0 3.0 0.00 0.03 0.00 84 1017.0
20260906142504 67 324 0.0 3.0 0.00 0.03 0.00 85 1017.0
20260906142004 66 0 0.0 0.0 0.00 0.03 0.00 87 1016.9
20260906141004 65 0 0.0 0.0 0.00 0.03 0.00 89 1016.9
20260906140504 64 0 0.0 0.0 0.00 0.03 0.00 90 1016.9
20260906140005 64 0 0.0 0.0 0.00 0.03 0.00 91 1016.8
20260906135504 64 0 0.0 0.0 0.00 0.03 0.00 92 1016.9
20260906135004 63 0 0.0 0.0 0.00 0.03 0.00 92 1017.0
20260906134504 63 0 0.0 0.0 0.00 0.03 0.00 93 1016.8
20260906134004 63 0 0.0 0.0 0.00 0.03 0.00 93 1016.7
20260906133005 62 0 0.0 0.0 0.00 0.03 0.00 94 1016.7
20260906132504 62 0 0.0 0.0 0.00 0.03 0.00 93 1016.7
20260906132004 61 0 0.0 0.0 0.00 0.03 0.00 93 1016.7
20260906131504 61 0 0.0 0.0 0.00 0.03 0.00 93 1016.7
20260906131004 60 0 0.0 0.0 0.00 0.03 0.00 93 1016.7
20260906130504 60 0 0.0 0.0 0.00 0.03 0.00 93 1016.7
20260906130004 60 0 0.0 0.0 0.00 0.03 0.00 93 1016.6
20260906125504 59 0 0.0 0.0 0.00 0.03 0.00 93 1016.6
20260906125004 59 0 0.0 0.0 0.00 0.03 0.00 93 1016.6
20260906124005 58 0 0.0 0.0 0.00 0.03 0.00 93 1016.5
20260906123503 57 0 0.0 0.0 0.00 0.03 0.00 92 1016.3
20260906123005 57 0 0.0 0.0 0.00 0.03 0.00 92 1016.2
20260906122004 57 0 0.0 0.0 0.00 0.03 0.00 92 1016.3
20260906121504 56 0 0.0 0.0 0.00 0.03 0.00 92 1016.2
20260906121004 56 0 0.0 0.0 0.00 0.03 0.00 92 1016.2
20260906120504 56 0 0.0 0.0 0.00 0.03 0.00 92 1016.2
20260906120006 56 0 0.0 0.0 0.00 0.03 0.00 91 1016.2
20260906115503 56 0 0.0 0.0 0.00 0.03 0.00 91 1016.1
20260906115004 56 0 0.0 0.0 0.00 0.03 0.00 91 1016.0
20260906114504 56 0 0.0 0.0 0.00 0.03 0.00 91 1016.0
20260906114004 56 0 0.0 0.0 0.00 0.03 0.00 91 1015.9
20260906113504 56 0 0.0 0.0 0.00 0.03 0.00 91 1015.8
20260906113004 56 0 0.0 0.0 0.00 0.03 0.00 91 1015.7
20260906112504 56 0 0.0 0.0 0.00 0.03 0.00 91 1015.7
20260906111504 56 0 0.0 0.0 0.00 0.03 0.00 91 1015.6
20260906111005 56 0 0.0 0.0 0.00 0.03 0.00 90 1015.5
20260906110503 56 0 0.0 0.0 0.00 0.03 0.00 90 1015.4
20260906110005 56 0 0.0 0.0 0.00 0.03 0.00 90 1015.5
20260906105503 56 0 0.0 0.0 0.00 0.03 0.00 90 1015.5
20260906105005 56 0 0.0 0.0 0.00 0.03 0.00 90 1015.5
20260906104004 56 0 0.0 0.0 0.00 0.03 0.00 90 1015.4
20260906103504 56 0 0.0 0.0 0.00 0.03 0.00 90 1015.3
20260906103004 56 0 0.0 0.0 0.00 0.03 0.00 90 1015.4
20260906102504 56 0 0.0 0.0 0.00 0.03 0.00 90 1015.4
20260906102004 56 0 0.0 0.0 0.00 0.03 0.00 90 1015.4
20260906101004 56 0 0.0 0.0 0.00 0.03 0.00 90 1015.3
20260906100504 56 0 0.0 0.0 0.00 0.03 0.00 90 1015.4
20260906100005 56 0 0.0 0.0 0.00 0.03 0.00 90 1015.4
20260906095503 56 0 0.0 0.0 0.00 0.03 0.00 90 1015.4
20260906094504 57 0 0.0 0.0 0.00 0.03 0.00 90 1015.3
20260906094005 57 0 0.0 0.0 0.00 0.03 0.00 90 1015.2
20260906093503 57 0 0.0 0.0 0.00 0.03 0.00 90 1015.1
20260906093005 57 0 0.0 0.0 0.00 0.03 0.00 89 1015.0
20260906092503 57 0 0.0 0.0 0.00 0.03 0.00 89 1015.1
20260906092005 57 0 0.0 0.0 0.00 0.03 0.00 90 1015.1
20260906091504 57 0 0.0 0.0 0.00 0.03 0.00 90 1015.2
20260906091004 57 0 0.0 0.0 0.00 0.03 0.00 90 1015.3
20260906090504 57 0 0.0 0.0 0.00 0.03 0.00 90 1015.4
20260906090004 57 0 0.0 0.0 0.00 0.03 0.00 89 1015.3
20260906085504 57 0 0.0 0.0 0.00 0.03 0.00 90 1015.3
20260906084504 57 0 0.0 0.0 0.00 0.03 0.00 89 1015.1
20260906084004 57 0 0.0 0.0 0.00 0.03 0.00 89 1015.1
20260906083503 57 0 0.0 0.0 0.00 0.03 0.00 89 1015.1
20260906083004 58 0 0.0 0.0 0.00 0.03 0.00 89 1015.1
20260906082504 58 0 0.0 0.0 0.00 0.03 0.00 89 1015.0
20260906082004 58 0 0.0 0.0 0.00 0.03 0.00 89 1015.0
20260906081503 58 0 0.0 0.0 0.00 0.03 0.00 89 1015.0
20260906081004 58 0 0.0 0.0 0.00 0.03 0.00 89 1014.9
20260906080005 58 0 0.0 0.0 0.00 0.03 0.00 89 1014.7
20260906075504 58 0 0.0 0.0 0.00 0.03 0.00 89 1014.5
20260906075005 58 0 0.0 0.0 0.00 0.03 0.00 89 1014.5
20260906074004 58 0 0.0 0.0 0.00 0.03 0.00 89 1014.6
20260906073504 58 0 0.0 0.0 0.00 0.03 0.00 88 1014.6
20260906073004 59 0 0.0 0.0 0.00 0.03 0.00 88 1014.5
20260906072504 59 0 0.0 0.0 0.00 0.03 0.00 89 1014.6
20260906072004 59 0 0.0 0.0 0.00 0.03 0.00 88 1014.5
20260906071503 59 0 0.0 0.0 0.00 0.03 0.00 88 1014.5
20260906071004 59 0 0.0 0.0 0.00 0.03 0.00 88 1014.6
20260906070503 59 0 0.0 0.0 0.00 0.03 0.00 88 1014.7
20260906065004 60 0 0.0 0.0 0.00 0.03 0.00 88 1014.6
20260906064503 60 0 0.0 0.0 0.00 0.03 0.00 87 1014.6
20260906064004 60 0 0.0 0.0 0.00 0.03 0.00 87 1014.6
20260906063503 60 0 0.0 0.0 0.00 0.03 0.00 87 1014.6
20260906063005 60 0 0.0 0.0 0.00 0.03 0.00 87 1014.5
20260906062503 60 0 0.0 0.0 0.00 0.03 0.00 87 1014.6
20260906061503 60 0 0.0 0.0 0.00 0.03 0.00 87 1014.6
20260906061005 60 0 0.0 0.0 0.00 0.03 0.00 87 1014.5
20260906060504 60 0 0.0 0.0 0.00 0.03 0.00 87 1014.6
20260906060004 60 0 0.0 0.0 0.00 0.03 0.00 87 1014.6
20260906055504 61 0 0.0 0.0 0.00 0.03 0.00 87 1014.5
20260906055005 61 0 0.0 0.0 0.00 0.03 0.00 87 1014.5
20260906054503 61 0 0.0 0.0 0.00 0.03 0.00 87 1014.4
20260906054005 61 0 0.0 0.0 0.00 0.03 0.00 87 1014.4
20260906053503 61 0 0.0 0.0 0.00 0.03 0.00 87 1014.4
20260906053005 61 0 0.0 0.0 0.00 0.03 0.00 87 1014.4
20260906052504 61 0 0.0 0.0 0.00 0.03 0.00 87 1014.3
20260906052004 61 0 0.0 0.0 0.00 0.03 0.00 87 1014.3
20260906051504 61 0 0.0 0.0 0.00 0.03 0.00 87 1014.5
20260906051004 61 0 0.0 0.0 0.00 0.03 0.00 87 1014.5
20260906050503 61 0 0.0 0.0 0.00 0.03 0.00 87 1014.4
20260906050005 61 0 0.0 0.0 0.00 0.03 0.00 87 1014.3
20260906045503 61 319 0.0 2.0 0.00 0.03 0.00 87 1014.3
20260906045004 61 319 0.0 2.0 0.00 0.03 0.00 87 1014.4
20260906044504 61 0 0.0 0.0 0.00 0.03 0.00 87 1014.3
20260906044005 61 0 0.0 0.0 0.00 0.03 0.00 87 1014.3
20260906043503 62 0 0.0 0.0 0.00 0.03 0.00 87 1014.4
20260906043004 62 0 0.0 0.0 0.00 0.03 0.00 87 1014.4
20260906042503 62 0 0.0 0.0 0.00 0.03 0.00 87 1014.3
20260906042005 62 0 0.0 0.0 0.00 0.03 0.00 87 1014.3
20260906041005 62 0 0.0 0.0 0.00 0.03 0.00 87 1014.4
20260906040503 62 0 0.0 0.0 0.00 0.03 0.00 86 1014.5
20260906035504 62 0 0.0 0.0 0.00 0.03 0.03 86 1014.5
20260906035004 62 0 0.0 0.0 0.00 0.03 0.03 86 1014.5
20260906034504 62 0 0.0 0.0 0.00 0.03 0.03 86 1014.5
20260906034004 63 0 0.0 0.0 0.00 0.03 0.03 86 1014.5
20260906033503 63 0 0.0 0.0 0.00 0.03 0.03 85 1014.5
20260906033005 63 0 0.0 0.0 0.00 0.03 0.03 85 1014.5
20260906032504 63 0 0.0 0.0 0.00 0.03 0.03 85 1014.4
20260906032004 63 0 0.0 0.0 0.00 0.03 0.03 85 1014.5
20260906031503 63 0 0.0 0.0 0.00 0.03 0.03 85 1014.6
20260906031004 63 0 0.0 0.0 0.00 0.03 0.03 84 1014.6
20260906030504 64 0 0.0 0.0 0.00 0.03 0.03 84 1014.5
20260906030004 64 0 0.0 0.0 0.00 0.03 0.03 84 1014.5
20260906025503 64 0 0.0 0.0 0.00 0.03 0.03 84 1014.5
20260906024503 64 0 0.0 0.0 0.00 0.03 0.03 83 1014.3
20260906024004 64 0 0.0 0.0 0.00 0.03 0.03 83 1014.2
20260906023504 65 0 0.0 0.0 0.00 0.03 0.03 83 1014.2
20260906023004 65 0 0.0 0.0 0.00 0.03 0.03 83 1014.1
20260906022503 65 0 0.0 0.0 0.00 0.03 0.03 83 1014.1
20260906022004 65 0 0.0 0.0 0.00 0.03 0.03 82 1014.1
20260906021004 66 0 0.0 0.0 0.00 0.03 0.03 82 1014.1
20260906020504 66 0 0.0 0.0 0.00 0.03 0.03 81 1014.1
20260906020004 66 0 0.0 0.0 0.00 0.03 0.03 80 1014.0
20260906015504 66 0 0.0 0.0 0.00 0.03 0.03 80 1014.0
20260906015004 66 0 0.0 0.0 0.00 0.03 0.03 80 1014.0
20260906014504 67 0 0.0 0.0 0.00 0.03 0.03 80 1014.0
20260906014004 67 0 0.0 0.0 0.00 0.03 0.03 79 1013.9
20260906013503 67 0 0.0 0.0 0.00 0.03 0.03 79 1013.8
20260906012504 68 0 0.0 0.0 0.00 0.03 0.03 78 1013.9
20260906012004 68 0 0.0 0.0 0.00 0.03 0.03 78 1013.9
20260906011004 68 0 0.0 0.0 0.00 0.03 0.03 77 1013.9
20260906010504 69 0 0.0 0.0 0.00 0.03 0.03 76 1013.9
20260906010004 69 0 0.0 0.0 0.00 0.03 0.03 76 1013.8
20260906005504 69 0 0.0 0.0 0.00 0.03 0.03 75 1013.7
20260906005005 69 0 0.0 0.0 0.00 0.03 0.03 75 1013.8
20260906004503 70 0 0.0 0.0 0.00 0.03 0.03 74 1013.9
20260906003504 70 0 0.0 0.0 0.00 0.03 0.03 74 1013.8
20260906003004 70 0 0.0 0.0 0.00 0.03 0.03 74 1013.7
20260906002504 71 0 0.0 0.0 0.00 0.03 0.03 73 1013.7
20260906001503 71 319 0.0 2.0 0.00 0.03 0.03 73 1013.6
20260906000504 72 0 0.0 0.0 0.00 0.03 0.03 73 1013.4
20260905235503 72 319 0.0 2.0 0.00 0.03 0.03 72 1013.3
20260905235005 72 319 0.0 2.0 0.00 0.03 0.03 72 1013.4
20260905234503 73 319 0.0 2.0 0.00 0.03 0.03 72 1013.2
20260905233504 73 349 1.0 3.0 0.00 0.03 0.03 71 1013.0